(503224) = 2004 JD50 = 2015 HL64

Discovered at Anderson Mesa on 2004-04-26 by LONEOS.

Orbit

Orbit type: Main Belt

Note: WebGL enabled browser required.

epoch2023-09-13.0
epoch JD2460200.5
perihelion date2020-06-05.67658
perihelion JD2459006.17658
argument of perihelion (°)322.11877
ascending node (°)213.73108
inclination (°)11.05484
eccentricity0.1557234
perihelion distance (AU)2.6547513
Tisserand w.r.t. Jupiter3.2
ΔV w.r.t. Earth (km/sec)10.7
semimajor axis (AU)3.1444094
mean anomaly (°)211.11406
mean daily motion (°/day)0.17676460
aphelion distance (AU)3.634
period (years)5.58
P-vector [x]-0.99105088
P-vector [y]0.10453864
P-vector [z]-0.08300499
Q-vector [x]-0.08050334
Q-vector [y]-0.96410232
Q-vector [z]-0.25303344
absolute magnitude16.41
phase slope0.15
uncertainty0
referenceMPO 780360
observations used208
oppositions13
arc length (days)7113
first opposition used2004
last opposition used2023
residual rms (arc-secs)0.75
perturbers coarse indicatorM-v
perturbers precise indicator003Ek
first observation date used2004-04-26.0
last observation date used2023-10-17.0
computer nameMPCLINUX
JD of orbit computation2458008.523872
perihelion JD uncertainty (days)1.2847E-04
argument of perihelion uncertainty (°)2.9226E-05
ascending node uncertainty (°)1.9937E-05
inclination uncertainty (°)1.0494E-05
eccentricity uncertainty 9.3801E-08
perihelion distance uncertainty (AU)2.9074E-07
Minimum Orbit Intersection Distances (in AU)
for orbit epoch: 2460200.5, reference: E2023-U59
Mercury2.26039
Venus1.94877
Earth1.66668
Mars1.04116
Jupiter1.39958
Saturn5.75044
Uranus15.8238
Neptune26.2658

Observations

215 total observations over interval: 2004 04 26.27774 – 2023 10 17.162071
These data are available for download (format description).

Date (UT) J2000 RA J2000 Dec Magn Location Ref
2004 04 26.27774 14 35 05.95 -13 33 43.5 19.4 R 699 – Lowell Observatory-LONEOS MPS 607374
2004 04 26.29200 14 35 05.32 -13 33 36.6   699 – Lowell Observatory-LONEOS MPS 607374
2004 04 26.30624 14 35 04.69 -13 33 29.6   699 – Lowell Observatory-LONEOS MPS 607374
2004 04 26.32049 14 35 03.93 -13 33 23.4   699 – Lowell Observatory-LONEOS MPS 607374
2004 05 14.17114 14 22 41.83 -11 16 14.3 20.7 V 291 – LPL/Spacewatch II MPS 110363
2004 05 14.18057 14 22 41.45 -11 16 10.2 20.5 V 291 – LPL/Spacewatch II MPS 110363
2004 05 14.18655 14 22 41.20 -11 16 06.8 20.1 V 291 – LPL/Spacewatch II MPS 110363
2004 05 23.23583 14 17 42.62 -10 17 19.3 21.0 V 691 – Steward Observatory, Kitt Peak-Spacewatch MPS 110363
2004 05 23.26361 14 17 41.78 -10 17 09.0 21.0 V 691 – Steward Observatory, Kitt Peak-Spacewatch MPS 110363
2004 05 23.29117 14 17 40.94 -10 16 59.3 21.4 V 691 – Steward Observatory, Kitt Peak-Spacewatch MPS 110363
2009 03 01.30839 10 09 28.29 -04 23 05.7 19.5 V 703 – Catalina Sky Survey MPS 607374
2009 03 01.31720 10 09 27.90 -04 23 01.6 19.2 V 703 – Catalina Sky Survey MPS 607374
2009 03 01.32584 10 09 27.57 -04 22 57.5 20.1 V 703 – Catalina Sky Survey MPS 607374
2009 03 01.33468 10 09 27.18 -04 22 54.4 19.4 V 703 – Catalina Sky Survey MPS 607374
2009 03 19.13473 09 58 54.98 -02 03 36.2 20.1 V 703 – Catalina Sky Survey MPS 607374
2009 03 19.14160 09 58 54.80 -02 03 34.2 20.3 V 703 – Catalina Sky Survey MPS 607374
2009 03 19.14838 09 58 54.51 -02 03 30.7 21.1 V 703 – Catalina Sky Survey MPS 607374
2009 03 19.15521 09 58 54.44 -02 03 27.4 21.1 V 703 – Catalina Sky Survey MPS 607374
2010 03 18.686177 17 51 36.876 -16 50 16.69   C51 – WISE MPS 904581
2010 03 19.149304 17 52 00.048 -16 48 27.90   C51 – WISE MPS 904581
2010 03 19.215392 17 52 03.329 -16 48 12.96   C51 – WISE MPS 904581
2010 03 19.480128 17 52 16.289 -16 47 09.74   C51 – WISE MPS 904581
2010 03 19.546216 17 52 19.644 -16 46 54.98   C51 – WISE MPS 904581
2010 03 19.810824 17 52 32.534 -16 45 51.77   C51 – WISE MPS 904581
2010 03 19.810951 17 52 32.558 -16 45 51.80   C51 – WISE MPS 904581
2010 03 19.943256 17 52 39.002 -16 45 20.05   C51 – WISE MPS 904581
2011 08 27.183889 22 02 53.51 +02 20 05.1 21.6 V H21 – Astronomical Research Observatory, Westfield MPS 607374
2011 08 27.195461 22 02 53.06 +02 20 01.2 22.0 V H21 – Astronomical Research Observatory, Westfield MPS 607374
2011 08 27.207056 22 02 52.53 +02 19 57.1   H21 – Astronomical Research Observatory, Westfield MPS 607374
2012 10 11.349991 01 52 31.539 +13 28 53.16 21.5 w F51 – Pan-STARRS 1, Haleakala MPS 607374
2012 10 11.364995 01 52 30.898 +13 28 48.00 21.1 w F51 – Pan-STARRS 1, Haleakala MPS 607374
2012 10 11.379981 01 52 30.278 +13 28 42.57 21.3 w F51 – Pan-STARRS 1, Haleakala MPS 607374
2012 10 11.395072 01 52 29.641 +13 28 37.22 21.3 w F51 – Pan-STARRS 1, Haleakala MPS 607374
2012 10 22.27699 01 44 46.32 +12 21 07.4 21.1 V G96 – Mt. Lemmon Survey MPS 607374
2012 10 22.28212 01 44 46.10 +12 21 06.0 21.2 V G96 – Mt. Lemmon Survey MPS 607374
2012 10 22.28726 01 44 45.85 +12 21 04.2 20.6 V G96 – Mt. Lemmon Survey MPS 607374
2012 10 22.29243 01 44 45.63 +12 21 01.4 20.2 V G96 – Mt. Lemmon Survey MPS 607374
2012 11 07.274729 01 33 49.543 +10 39 58.23 21.4 w F51 – Pan-STARRS 1, Haleakala MPS 607374
2012 11 07.302828 01 33 48.469 +10 39 48.12 21.2 w F51 – Pan-STARRS 1, Haleakala MPS 607374
2012 11 07.316937 01 33 47.950 +10 39 43.11 21.3 w F51 – Pan-STARRS 1, Haleakala MPS 607374
2015 04 19.34236 14 04 18.75 -13 19 03.5   G96 – Mt. Lemmon Survey MPS 607374
2015 04 19.34746 14 04 18.56 -13 19 01.2 20.1 V G96 – Mt. Lemmon Survey MPS 607374
2015 04 19.35256 14 04 18.32 -13 18 58.5 20.3 V G96 – Mt. Lemmon Survey MPS 607374
2015 04 19.35765 14 04 18.12 -13 18 55.8 20.2 V G96 – Mt. Lemmon Survey MPS 607374
2015 04 23.38869 14 01 27.462 -12 45 19.37 20.0 w F51 – Pan-STARRS 1, Haleakala MPS 603439
2015 04 23.40118 14 01 26.905 -12 45 13.09 20.0 w F51 – Pan-STARRS 1, Haleakala MPS 603439
2015 04 23.41371 14 01 26.352 -12 45 06.87 20.1 w F51 – Pan-STARRS 1, Haleakala MPS 603439
2015 04 23.42619 14 01 25.796 -12 45 00.56 20.0 w F51 – Pan-STARRS 1, Haleakala MPS 603439
2015 04 24.23166 14 00 51.85 -12 38 17.3 20.0 V G96 – Mt. Lemmon Survey MPS 603439
2015 04 24.23793 14 00 51.57 -12 38 14.1 20.3 V G96 – Mt. Lemmon Survey MPS 603439
2015 04 24.24419 14 00 51.30 -12 38 11.1 20.1 V G96 – Mt. Lemmon Survey MPS 603439
2015 04 24.47448 14 00 41.378 -12 36 14.78 19.9 w F51 – Pan-STARRS 1, Haleakala MPS 607374
2015 04 24.48662 14 00 40.841 -12 36 08.66 19.9 w F51 – Pan-STARRS 1, Haleakala MPS 607374
2015 04 24.49875 14 00 40.304 -12 36 02.47 19.9 w F51 – Pan-STARRS 1, Haleakala MPS 607374
2015 04 24.50346 14 00 40.092 -12 36 00.05 19.7 w F52 – Pan-STARRS 2, Haleakala MPS 607374
2015 04 24.51085 14 00 39.771 -12 35 56.38 19.9 w F51 – Pan-STARRS 1, Haleakala MPS 607374
2015 04 24.51634 14 00 39.534 -12 35 53.59 19.7 w F52 – Pan-STARRS 2, Haleakala MPS 607374
2015 04 24.52923 14 00 38.963 -12 35 47.10 19.8 w F52 – Pan-STARRS 2, Haleakala MPS 607374
2015 04 24.54207 14 00 38.401 -12 35 40.60 19.8 w F52 – Pan-STARRS 2, Haleakala MPS 607374
2015 04 25.45362 14 00 00.192 -12 28 03.91 19.8 w F51 – Pan-STARRS 1, Haleakala MPS 603439
2015 04 25.46585 13 59 59.653 -12 27 57.72 19.8 w F51 – Pan-STARRS 1, Haleakala MPS 603439
2015 04 25.47794 13 59 59.125 -12 27 51.72 19.7 w F51 – Pan-STARRS 1, Haleakala MPS 603439
2015 04 25.49006 13 59 58.593 -12 27 45.54 19.7 w F51 – Pan-STARRS 1, Haleakala MPS 603439
2015 04 26.39322 13 59 20.932 -12 20 13.13 19.3 i F51 – Pan-STARRS 1, Haleakala MPS 603439
2015 04 26.40391 13 59 20.471 -12 20 07.88 19.5 i F51 – Pan-STARRS 1, Haleakala MPS 603439
2015 04 26.41458 13 59 20.033 -12 20 02.63 19.3 i F51 – Pan-STARRS 1, Haleakala MPS 603439
2015 04 26.42535 13 59 19.549 -12 19 56.87 19.3 i F51 – Pan-STARRS 1, Haleakala MPS 603439
2015 05 11.24405 13 49 56.99 -10 22 29.7 20.3 V G96 – Mt. Lemmon Survey MPS 606437
2015 05 11.24916 13 49 56.80 -10 22 27.5 20.6 V G96 – Mt. Lemmon Survey MPS 606437
2015 05 11.25427 13 49 56.62 -10 22 25.2 20.5 V G96 – Mt. Lemmon Survey MPS 606437
2015 05 11.25937 13 49 56.46 -10 22 22.9 20.2 V G96 – Mt. Lemmon Survey MPS 606437
2015 05 11.28075 13 49 55.71 -10 22 13.9   G96 – Mt. Lemmon Survey MPS 606437
2015 05 11.29230 13 49 55.34 -10 22 08.5 19.9 V G96 – Mt. Lemmon Survey MPS 606437
2015 05 11.29807 13 49 55.13 -10 22 06.1 20.0 V G96 – Mt. Lemmon Survey MPS 606437
2015 05 18.36597 13 46 31.114 -09 33 50.63 20.0 w F52 – Pan-STARRS 2, Haleakala MPS 607374
2015 05 18.38063 13 46 30.717 -09 33 44.70 20.0 w F52 – Pan-STARRS 2, Haleakala MPS 607374
2015 05 18.39530 13 46 30.312 -09 33 39.29 20.2 w F52 – Pan-STARRS 2, Haleakala MPS 607374
2015 05 18.40985 13 46 29.914 -09 33 33.68 20.3 w F52 – Pan-STARRS 2, Haleakala MPS 607374
2015 05 25.23028 13 44 07.97 -08 54 02.9 21.2 V G96 – Mt. Lemmon Survey MPS 608717
2015 05 25.23542 13 44 07.86 -08 54 01.9 21.5 V G96 – Mt. Lemmon Survey MPS 608717
2015 05 25.24055 13 44 07.72 -08 54 00.4 21.9 V G96 – Mt. Lemmon Survey MPS 608717
2015 05 25.24569 13 44 07.68 -08 53 58.2 21.3 V G96 – Mt. Lemmon Survey MPS 608717
2016 06 29.48355 20 11 05.993 -04 26 44.24 21.5 r F51 – Pan-STARRS 1, Haleakala MPS 716920
2016 06 29.49599 20 11 05.511 -04 26 44.31 21.6 r F51 – Pan-STARRS 1, Haleakala MPS 716920
2016 06 29.50847 20 11 04.998 -04 26 43.98 21.5 r F51 – Pan-STARRS 1, Haleakala MPS 716920
2017 09 11.50456 23 48 08.227 +08 36 48.61 20.8 i F51 – Pan-STARRS 1, Haleakala MPS 815696
2017 09 11.52733 23 48 07.280 +08 36 40.74 21.0 i F51 – Pan-STARRS 1, Haleakala MPS 815696
2017 09 11.53878 23 48 06.858 +08 36 36.72 21.5 i F51 – Pan-STARRS 1, Haleakala MPS 815696
2017 10 16.18754 23 26 47.77 +04 58 13.7 21.4 G G96 – Mt. Lemmon Survey MPS 870058
2017 10 16.19275 23 26 47.53 +04 58 11.5 21.3 G G96 – Mt. Lemmon Survey MPS 870058
2017 10 16.19799 23 26 47.40 +04 58 10.1 21.9 G G96 – Mt. Lemmon Survey MPS 870058
2017 10 16.20322 23 26 47.26 +04 58 07.5 21.7 G G96 – Mt. Lemmon Survey MPS 870058
2018 11 05.40980 03 55 47.44 +14 38 41.3 21.4 G G96 – Mt. Lemmon Survey MPS 937141
2018 11 05.41475 03 55 47.23 +14 38 40.1 21.3 G G96 – Mt. Lemmon Survey MPS 937141
